User: anonymous   Login
Location: Nebula Knoll Observatory
(43.6666°N, 71.0000°W)
Time: 03:11:50
(UTC-05:00)
Language:

Cosmos 1782 - Orbit

View from above orbital plane
View from above orbital plane
View from above satellite
View from above satellite

Ground track
Ground track

The orbit data is extracted from the following two-line orbital elements,

1 16986U 86074A   16338.03543680  .00000267  00000-0  16156-4 0  9993
2 16986  82.5067 312.0084 0009654 292.9662  67.0546 15.06374614641329
Epoch (UTC): 03 December 2016 00:51:01
Eccentricity: 0.0009654
inclination: 82.5067°
perigee height: 540 km
apogee height: 554 km
right ascension of ascending node: 312.0084°
argument of perigee: 292.9662°
revolutions per day: 15.06374614
mean anomaly at epoch: 67.0546°
orbit number at epoch: 64132

The dashed part of the orbit path shows where the satellite is in the earth's shadow,  

DLR